Regional Weather Roundup
Issued by NWS

Home | Current Version | Previous Version | Text Only | Print | Product List | Glossary On
Versions: 1 2 3 4 5 6 7 8 9 10 11 12 13 14 15 16 17 18 19 20 21 22 23 24 25 26 27 28 29 30 31 32 33 34 35 36 37 38 39 40 41 42 43 44 45 46 47 48 49 50
000
ASUS45 KABQ 011910
RWRNM
WEATHER ROUNDUP FOR NEW MEXICO
NATIONAL WEATHER SERVICE ALBUQUERQUE NM
100 PM MDT WED OCT 01 2014

NOTE: "FAIR" MEANS FEW OR NO CLOUDS BELOW 12,000 FEET AGL WITH NO
       SIGNIFICANT WEATHER OR OBSTRUCTIONS TO VISION.

      THIS PRODUCT IS RELEASED AS TWO VERSIONS.  ONE VERSION NEAR
      THE TOP OF THE HOUR CONTAINING PRELIMINARY DATA FROM ALBUQUERQUE
      AND OTHER STATIONS.  A FINAL VERSION WITH ADDITIONAL DATA IS
      ISSUED ABOUT 10 MINUTES AFTER THE HOUR.

NMZ501-503-504-510>518-012000-
NORTHWEST PLATEAU/NORTHCENTRAL MOUNTAINS

CITY           SKY/WX    TMP DP  RH WIND       PRES   REMARKS
FARMINGTON     SUNNY     67  37  33 W9        29.95F
LOS ALAMOS     MOSUNNY   63  33  32 S13G22    30.01F
SANTA FE       SUNNY     68  30  24 SW10G17   29.99F
TAOS           SUNNY     64  32  29 SW17G23   30.01F
ANGEL FIRE     FAIR      60  27  28 SW25G39   30.06F

$$
NMZ402-403-502-505>509-012000-
WESTCENTRAL MOUNTAINS/SOUTHWEST MOUNTAINS

CITY           SKY/WX    TMP DP  RH WIND       PRES   REMARKS
GALLUP         PTSUNNY   67  36  31 SW18      30.02F
GRANTS         SUNNY     70  28  21 NW5       30.02F
SILVER CITY    SUNNY     72  32  23 NW13G20   30.02F

$$
NMZ407-409-411-412-012000-
SOUTHERN DESERTS

CITY           SKY/WX    TMP DP  RH WIND       PRES   REMARKS
LORDSBURG      FAIR      75  34  22 MISG      29.97F
DEMING         SUNNY     77  33  20 SW15G24   29.95F
LAS CRUCES     SUNNY     78  32  18 W7G20     29.97F
HOLLOMAN AFB   SUNNY     80  32  17 VRB5      29.91F
ALAMOGORDO     SUNNY     77  37  24 S8        29.93F
T OR C         SUNNY     75  31  19 S9        29.94F

$$
NMZ519>523-012000-
CENTRAL VALLEYS/CENTRAL HIGHLANDS

CITY           SKY/WX    TMP DP  RH WIND       PRES   REMARKS
ALBUQUERQUE    MOSUNNY   70  34  26 S8        29.96F
DOUBLE EAGLE   MOSUNNY   72  28  20 SW14G21   29.98F
MORIARTY ARPT  FAIR      71  30  21 SW14      29.99F
CLINES CORNERS MOSUNNY   68  34  28 SW15G22   30.01F
BELEN          FAIR      72  36  26 E6        29.95F
SOCORRO        FAIR      74  35  24 S6        29.94F

$$
NMZ524>526-539-540-012000-
SOUTHCENTRAL MOUNTAINS

CITY           SKY/WX    TMP DP  RH WIND       PRES   REMARKS
RUIDOSO        NOT AVBL

$$
NMZ527>531-012000-
NORTHEAST HIGHLANDS/NORTHEAST PLAINS

CITY           SKY/WX    TMP DP  RH WIND       PRES   REMARKS
LAS VEGAS      SUNNY     69  32  25 SW25G31   29.98F
RATON          SUNNY     70  25  18 S15       29.91F
CLAYTON        SUNNY     74  33  22 S14       29.88F

$$
NMZ532>537-012000-
EASTCENTRAL PLAINS

CITY           SKY/WX    TMP DP  RH WIND       PRES   REMARKS
TUCUMCARI      SUNNY     78  34  20 CALM      29.85F
CANNON AFB     SUNNY     77  37  24 W12       29.88F
CLOVIS AIRPORT   N/A     75  41  29 SW9       29.90F

$$
NMZ028-029-538-012000-
SOUTHEAST PLAINS

CITY           SKY/WX    TMP DP  RH WIND       PRES   REMARKS
ROSWELL        SUNNY     80  42  25 VRB3      29.88F
CARLSBAD       SUNNY     83  51  33 SE9       29.85F
HOBBS          SUNNY     81  41  24 SW10G18   29.88F


$$


USA.gov is the U.S. government's official web portal to all federal, state and local government web resources and services.